TimeEST,TemperatureF,Dew PointF,Humidity,Sea Level PressureIn,VisibilityMPH,Wind Direction,Wind SpeedMPH,Gust SpeedMPH,PrecipitationIn,Events,Conditions,WindDirDegrees,DateUTC
12:56 AM,19.0,10.0,68,30.58,10.0,NW,10.4,-,N/A,,Partly Cloudy,320,2013-11-24 05:56:00
1:56 AM,18.0,8.1,65,30.59,10.0,NW,8.1,-,N/A,,Partly Cloudy,310,2013-11-24 06:56:00
2:56 AM,17.1,8.1,68,30.59,10.0,NNW,8.1,-,N/A,,Partly Cloudy,340,2013-11-24 07:56:00
3:56 AM,16.0,8.1,71,30.61,10.0,NW,5.8,-,N/A,,Partly Cloudy,310,2013-11-24 08:56:00
4:56 AM,17.1,8.1,68,30.62,10.0,NW,8.1,-,N/A,,Partly Cloudy,320,2013-11-24 09:56:00
5:56 AM,17.1,8.1,68,30.63,10.0,NW,5.8,-,N/A,,Partly Cloudy,320,2013-11-24 10:56:00
6:56 AM,16.0,8.1,71,30.63,10.0,North,6.9,-,N/A,,Partly Cloudy,350,2013-11-24 11:56:00
7:56 AM,17.1,9.0,71,30.65,10.0,North,3.5,-,N/A,,Partly Cloudy,350,2013-11-24 12:56:00
8:56 AM,19.9,10.0,65,30.68,10.0,NW,5.8,-,N/A,,Partly Cloudy,320,2013-11-24 13:56:00
9:56 AM,23.0,7.0,50,30.70,10.0,NNW,10.4,-,N/A,,Partly Cloudy,340,2013-11-24 14:56:00
10:56 AM,23.0,7.0,50,30.70,10.0,NW,8.1,-,N/A,,Scattered Clouds,320,2013-11-24 15:56:00
11:56 AM,24.1,8.1,51,30.67,10.0,NNW,13.8,17.3,N/A,,Mostly Cloudy,330,2013-11-24 16:56:00
12:56 PM,24.1,8.1,51,30.66,10.0,WNW,10.4,-,N/A,,Mostly Cloudy,290,2013-11-24 17:56:00
1:56 PM,25.0,9.0,51,30.64,10.0,WNW,12.7,20.7,N/A,,Mostly Cloudy,300,2013-11-24 18:56:00
2:56 PM,25.0,10.0,53,30.63,10.0,NNW,10.4,-,N/A,,Mostly Cloudy,330,2013-11-24 19:56:00
3:56 PM,24.1,9.0,53,30.61,10.0,WNW,8.1,-,N/A,,Mostly Cloudy,290,2013-11-24 20:56:00
4:56 PM,24.1,10.0,55,30.60,10.0,WNW,3.5,-,N/A,,Mostly Cloudy,300,2013-11-24 21:56:00
5:56 PM,21.9,10.0,60,30.61,10.0,West,3.5,-,N/A,,Mostly Cloudy,280,2013-11-24 22:56:00
6:56 PM,21.0,10.9,65,30.60,10.0,Calm,Calm,-,N/A,,Partly Cloudy,0,2013-11-24 23:56:00
7:56 PM,21.0,10.9,65,30.60,10.0,SSW,3.5,-,N/A,,Clear,200,2013-11-25 00:56:00
8:56 PM,21.0,10.9,65,30.58,10.0,SSW,5.8,-,N/A,,Partly Cloudy,200,2013-11-25 01:56:00
9:56 PM,19.9,10.9,68,30.57,10.0,SSW,5.8,-,N/A,,Partly Cloudy,200,2013-11-25 02:56:00
10:56 PM,19.9,10.9,68,30.55,10.0,South,5.8,-,N/A,,Partly Cloudy,180,2013-11-25 03:56:00
11:56 PM,19.0,10.9,71,30.53,10.0,South,6.9,-,N/A,,Partly Cloudy,170,2013-11-25 04:56:00